Marshfield, WI

5:37 PM CDT on May 24, 2017 (GMT -0500)
Marshfield Municipal

Weather History for KMFI - January, 2013

Change the Weather History Date:

Monday, January 28, 2013

  Actual Average Record
Temperature  
Mean Temperature 29 °F -  
Max Temperature 30 °F 21 °F 47 °F (1919)
Min Temperature 28 °F 3 °F -35 °F (1915)
Degree Days  
Heating Degree Days 36    
Moisture  
Dew Point 28 °F    
Average Humidity 94    
Maximum Humidity 100    
Minimum Humidity 85    
Precipitation  
Precipitation 0.02 in - - ()
Sea Level Pressure  
Sea Level Pressure 29.85 in    
Wind  
Wind Speed 6 mph (SE)    
Max Wind Speed 15 mph    
Max Gust Speed -    
Visibility 4 miles    
Events Rain , Snow    
Averages and records for this station are not official NWS values.
T = Trace of Precipitation, MM = Missing Value Source: NWS Daily Summary

Daily Weather History Graph

Daily Weather History Graph

Search for Another Location

Airport or City:

Trip Planner

Search our weather history database for the weather conditions in past years. The results will help you decide how hot, cold, wet, or windy it might be!

Date:

Astronomy

Jan. 28, 2013 Rise Set
Actual Time 7:23 AM CST 5:04 PM CST
Civil Twilight 6:52 AM CST 5:35 PM CST
Nautical Twilight 6:17 AM CST 6:10 PM CST
Astronomical Twilight 5:42 AM CST 6:45 PM CST
Moon 7:06 PM CST (1/28) 7:43 AM CST (1/28)
Length of Visible Light 10h 43m
Length of Day
9h 40m
Full, 98% of the Moon is Illuminated
Jan 28
Full
Feb 3
Last Quarter
Feb 10
New
Feb 17
First Quarter
Feb 25
Full

Hourly Weather History & Observations

Time (CST) Temp. Windchill Dew Point Humidity Pressure Visibility Wind Dir Wind Speed Gust Speed Precip Events Conditions
12:23 AM 28.4 °F 22.2 °F 28.4 °F 100% 29.80 in 4.0 mi SE 5.8 mph - N/A   Overcast
12:44 AM 28.4 °F 22.2 °F 28.4 °F 100% 29.79 in 2.5 mi SE 5.8 mph - 0.00 in Rain Light Freezing Rain
12:54 AM 30.0 °F 24.1 °F 28.9 °F 96% 29.84 in 2.0 mi SSE 5.8 mph - 0.00 in Rain Light Freezing Rain
1:20 AM 30.2 °F 25.4 °F 28.4 °F 93% 29.78 in 2.5 mi SE 4.6 mph - 0.01 in Snow Light Snow
1:33 AM 30.2 °F 25.4 °F 28.4 °F 93% 29.77 in 4.0 mi ESE 4.6 mph - 0.01 in Snow Light Snow
1:54 AM 30.0 °F - 28.9 °F 96% 29.83 in 2.0 mi Calm Calm - 0.01 in Snow Light Snow
2:54 AM 30.0 °F - 28.9 °F 96% 29.83 in 2.0 mi Calm Calm - 0.01 in Snow Light Snow
3:17 AM 30.2 °F - 28.4 °F 93% 29.77 in 3.0 mi Calm Calm - 0.00 in Snow Light Snow
3:35 AM 30.2 °F - 28.4 °F 93% 29.76 in 4.0 mi Calm Calm - 0.00 in   Overcast
3:54 AM 30.0 °F - 28.9 °F 96% 29.81 in 4.0 mi Calm Calm - 0.00 in   Overcast
4:32 AM 28.4 °F 24.6 °F 28.4 °F 100% 29.77 in 4.0 mi WNW 3.5 mph - N/A   Overcast
4:54 AM 28.9 °F - 28.0 °F 96% 29.83 in 3.0 mi Calm Calm - N/A   Overcast
5:07 AM 28.4 °F 23.3 °F 28.4 °F 100% 29.78 in 3.0 mi WNW 4.6 mph - N/A   Overcast
5:54 AM 28.9 °F 22.8 °F 28.0 °F 96% 29.84 in 4.0 mi WNW 5.8 mph - N/A   Overcast
6:54 AM 28.9 °F 21.1 °F 28.0 °F 96% 29.86 in 4.0 mi NW 8.1 mph - N/A   Overcast
7:54 AM 30.0 °F 22.4 °F 28.0 °F 92% 29.89 in 4.0 mi WNW 8.1 mph - N/A   Overcast
8:54 AM 30.0 °F 21.7 °F 28.0 °F 92% 29.91 in 5.0 mi NW 9.2 mph - N/A   Overcast
9:54 AM 30.0 °F 22.4 °F 28.0 °F 92% 29.93 in 7.0 mi NNW 8.1 mph - N/A   Overcast
10:54 AM 30.0 °F 24.1 °F 27.0 °F 88% 29.93 in 9.0 mi NNW 5.8 mph - N/A   Overcast
11:54 AM 30.9 °F 26.2 °F 27.0 °F 85% 29.94 in 7.0 mi WNW 4.6 mph - N/A   Overcast
12:54 PM 30.9 °F 27.5 °F 28.0 °F 89% 29.92 in 8.0 mi NW 3.5 mph - N/A   Overcast
1:54 PM 30.9 °F 27.5 °F 28.0 °F 89% 29.91 in 9.0 mi NW 3.5 mph - N/A   Overcast
2:54 PM 30.9 °F - 28.0 °F 89% 29.92 in 9.0 mi Calm Calm - N/A   Overcast
3:54 PM 30.9 °F 26.2 °F 28.0 °F 89% 29.93 in 7.0 mi ESE 4.6 mph - N/A   Overcast
4:54 PM 30.0 °F 22.4 °F 28.0 °F 92% 29.94 in 6.0 mi SSE 8.1 mph - N/A   Overcast
5:19 PM 30.2 °F 22.6 °F 28.4 °F 93% 29.88 in 5.0 mi SSE 8.1 mph - N/A   Overcast
5:54 PM 30.0 °F 21.1 °F 28.9 °F 96% 29.93 in 5.0 mi SSE 10.4 mph - N/A   Overcast
6:22 PM 30.2 °F 21.9 °F 28.4 °F 93% 29.88 in 4.0 mi SSE 9.2 mph - N/A   Overcast
6:54 PM 30.0 °F 22.4 °F 28.9 °F 96% 29.92 in 3.0 mi SE 8.1 mph - N/A   Overcast
7:09 PM 30.2 °F 21.9 °F 28.4 °F 93% 29.86 in 2.5 mi SE 9.2 mph - N/A   Overcast
7:21 PM 30.2 °F 21.9 °F 28.4 °F 93% 29.86 in 3.0 mi SE 9.2 mph - N/A   Overcast
7:54 PM 30.0 °F 20.0 °F 28.9 °F 96% 29.89 in 2.5 mi SE 12.7 mph - N/A   Overcast
8:42 PM 30.2 °F 19.3 °F 28.4 °F 93% 29.84 in 3.0 mi SSE 15.0 mph - N/A   Overcast
8:54 PM 30.0 °F 20.5 °F 28.9 °F 96% 29.89 in 3.0 mi SSE 11.5 mph - N/A   Overcast
9:15 PM 30.2 °F 21.3 °F 28.4 °F 93% 29.83 in 2.0 mi ESE 10.4 mph - N/A   Overcast
9:31 PM 30.2 °F 21.9 °F 28.4 °F 93% 29.82 in 1.8 mi SE 9.2 mph - N/A   Overcast
9:54 PM 30.0 °F 20.5 °F 28.9 °F 96% 29.87 in 1.8 mi SE 11.5 mph - N/A   Overcast
10:07 PM 30.2 °F 21.3 °F 30.2 °F 100% 29.81 in 2.5 mi ESE 10.4 mph - N/A   Overcast
10:19 PM 30.2 °F 20.2 °F 28.4 °F 93% 29.80 in 3.0 mi SE 12.7 mph - N/A   Overcast
10:54 PM 30.0 °F 20.5 °F 28.9 °F 96% 29.81 in 5.0 mi ESE 11.5 mph - N/A   Overcast
11:51 PM 30.2 °F 20.8 °F 28.4 °F 93% 29.72 in 4.0 mi East 11.5 mph - 0.00 in   Overcast
11:54 PM 30.9 °F 22.2 °F 30.0 °F 96% 29.77 in 4.0 mi ESE 10.4 mph - 0.00 in   Overcast